Home > Weather > Bülach > Past weeks

Flag for Switzerland Past Weather in Bülach, Zurich, Switzerland — Yesterday and Last 2 Weeks

Now
61 °F

Partly sunny.


Feels Like: 61 °F
Forecast: 56 / 67 °F
Wind: 1 mph from Northeast

Location: Zurich-Kloten

Current Time: May 28, 2016 at 10:10:59 AM

Latest Report: May 28, 2016 at 8:00 AM


Visibility: 7 mi

Pressure: 29.94 "Hg

Humidity: 92%

Dew Point: 59 °F

Location of BülachLocation

Past Weather in Bülach — Graph

°F

Bülach Temperature Yesterday

Maximum temperature yesterday: 80 °F (at 5:00 PM)
Minimum temperature yesterday: 54 °F (at 4:00 AM)
Average temperature yesterday: 67 °F

High & Low Weather Summary for the Past Weeks

 TemperatureHumidityPressure
High80 °F (May 22, 3:00 PM)100% (May 20, 3:00 AM)30.23 "Hg (May 20, 3:00 AM)
Low40 °F (May 16, 4:00 AM)30% (May 21, 4:00 PM)29.50 "Hg (May 13, 8:00 AM)
Average54 °F75%29.98 "Hg
* Reported May 13 8:00 AM — May 28 8:00 AM, Bülach, Weather by CustomWeather, © 2016

Note: Actual official high and low records may vary slightly from our data, if they occured in-between our weather recording intervals... More about our weather records

Advertising

Bülach Weather History for the Previous 24 Hours

Scroll right to see more
 ConditionsComfort  
Time TempWeatherWind HumidityBarometerVisibility
8:00 AM
Sat, May 28
61 °FPartly sunny.1 mph92%29.94 "Hg7 mi
7:00 AM61 °FCool.3 mph92%29.96 "HgN/A
6:00 AM59 °FCool.5 mph92%29.97 "HgN/A
5:00 AM59 °FPassing clouds.2 mph94%29.99 "Hg9 mi
4:00 AM60 °FCool.12 mph89%29.99 "HgN/A
3:00 AM61 °FCool.5 mph92%29.95 "HgN/A
2:00 AM60 °FPassing clouds.3 mph90%29.92 "Hg12 mi
1:00 AM61 °FCool.2 mph87%29.93 "HgN/A
12:00 AM63 °FMild.7 mph86%29.92 "HgN/A
11:00 PM
Fri, May 27
65 °FPassing clouds.7 mph79%29.93 "Hg12 mi
10:00 PM66 °FMild.3 mph72%29.93 "HgN/A
9:00 PM66 °FMild.5 mph67%29.90 "HgN/A
8:00 PM75 °FThunderstorms. Partly sunny.2 mph58%29.86 "Hg16 mi
7:00 PM78 °FWarm.5 mph45%29.84 "HgN/A
6:00 PM79 °FWarm.5 mph40%29.84 "HgN/A
5:00 PM80 °FPartly sunny.2 mph41%29.85 "Hg19 mi
4:00 PM79 °FWarm.3 mph44%29.87 "HgN/A
3:00 PM78 °FWarm.2 mph46%29.88 "HgN/A
2:00 PM75 °FOvercast.2 mph48%29.90 "Hg19 mi
1:00 PM74 °FMild.3 mph51%29.91 "HgN/A
12:00 PM74 °FMild.5 mph51%29.92 "HgN/A
11:00 AM71 °FOvercast.3 mph60%29.94 "Hg16 mi
10:00 AM68 °FMild.6 mph67%29.96 "HgN/A
Weather by CustomWeather, © 2016

See weather overviewHow to use our weather pages